This is the latest recevied weather packets stored in our database for station/object N3TJJ-2. If no packets are shown the sender has not sent any weather packets the latest 10 day(s).
| Time | Temp. | Humidity | Pressure | Rain* | Wind** | Luminosity | Snow |
|---|---|---|---|---|---|---|---|
| 1778126361 | 11.11° C | 63% | 1011.4 hPa | 0.51 mm | - | - | - |
| 1778126001 | 11.67° C | 74% | 1011.2 hPa | 0.25 mm | - | - | - |
| 1778125637 | 13.33° C | 82% | 1011 hPa | 0 mm | - | - | - |
| 1778125280 | 13.33° C | 82% | 1011.4 hPa | 0 mm | - | - | - |
| 1778124918 | 13.33° C | 82% | 1011.4 hPa | 0 mm | - | - | - |
| 1778124558 | 13.33° C | 82% | 1011.4 hPa | 0 mm | - | - | - |
| 1778124197 | 13.33° C | 82% | 1011.4 hPa | 0 mm | - | - | - |
| 1778123840 | 13.33° C | 82% | 1011.3 hPa | 0 mm | - | - | - |
| 1778123477 | 13.33° C | 81% | 1011.1 hPa | 0 mm | - | - | - |
| 1778123117 | 13.33° C | 81% | 1011 hPa | 0 mm | - | - | - |
| 1778122763 | 13.89° C | 81% | 1011.1 hPa | 0 mm | - | - | - |
| 1778122401 | 13.89° C | 79% | 1010.9 hPa | 0 mm | - | - | - |
| 1778122037 | 13.89° C | 81% | 1010.8 hPa | 0 mm | - | - | - |
| 1778121678 | 14.44° C | 81% | 1010.6 hPa | 0 mm | - | - | - |
| 1778121320 | 14.44° C | 81% | 1010.7 hPa | 0 mm | - | - | - |
| 1778120957 | 14.44° C | 80% | 1010.8 hPa | 0 mm | - | - | - |
| 1778120604 | 14.44° C | 80% | 1010.7 hPa | 0.25 mm | - | - | - |
| 1778120237 | 14.44° C | 80% | 1010.6 hPa | 0.25 mm | - | - | - |
| 1778119901 | 14.44° C | 80% | 1010.8 hPa | 0.25 mm | - | - | - |
| 1778119518 | 14.44° C | 80% | 1010.8 hPa | 0.25 mm | - | - | - |
| 1778119157 | 15° C | 80% | 1010.9 hPa | 0.25 mm | - | - | - |
| 1778118798 | 15° C | 80% | 1010.9 hPa | 0.25 mm | - | - | - |
| 1778118437 | 15° C | 80% | 1010.9 hPa | 0.25 mm | - | - | - |
| 1778118080 | 15° C | 78% | 1011 hPa | 0.25 mm | - | - | - |
| 1778117724 | 15° C | 77% | 1011 hPa | 0.25 mm | - | - | - |
* Rain latest hour (hover to see other rain measurements)
** Current wind speed in m/s (hover to see current wind gust speed)